Regional Weather Roundup
Issued by NWS Grand Forks, ND

Home | Current Version | Previous Version | Graphics & Text | Print | Product List | Glossary On
Versions: 1 2 3 4 5 6 7 8 9 10 11 12 13 14 15 16 17 18 19 20 21 22 23 24 25 26 27 28 29 30 31 32 33 34 35 36 37 38 39 40 41 42 43 44 45 46 47 48 49 50
000
ASUS43 KFGF 232310
RWRFGF
PRAIRIE TO PINES  WEATHER ROUNDUP
NATIONAL WEATHER SERVICE EASTERN NORTH DAKOTA/GRAND FORKS ND
600 PM CDT SAT SEP 23 2017

 **SATELLITE DATA USED TO AUGMENT SKY COVER AT AUTOMATED STATIONS**
 *****  WEATHER ACROSS EASTERN NORTH DAKOTA  *****

CITY           SKY/WX    TMP DP  RH WIND       PRES   REMARKS
GRAND FORKS    CLOUDY    61  50  67 N14       30.04F
GRAND FRKS AFB CLOUDY    59  47  64 N13       30.05F
DEVILS LAKE    CLOUDY    55  45  68 N12       30.10R
FARGO          CLOUDY    60  51  72 N15G23    30.01F
WAHPETON ARPT  CLOUDY    55  52  88 N8        29.99F
$$

 ***** WEATHER ACROSS CENTRAL AND WESTERN NORTH DAKOTA  *****

CITY           SKY/WX    TMP DP  RH WIND       PRES   REMARKS
BISMARCK       CLOUDY    57  45  64 N12       30.07S
MINOT          CLOUDY    53  42  66 N10       30.10S
JAMESTOWN      FAIR      58  47  66 NE12      30.03S
MINOT AFB      CLOUDY    53  40  63 N7        30.09S
GARRISON         N/A     51  42  71 NE9       30.10R
WILLISTON      CLOUDY    51  39  63 N8        30.12S
DICKINSON      LGT RAIN  45  44  97 N7        30.09R
HETTINGER      CLOUDY    46  43  89 N10       30.07F
$$

 *****  OTHER AIRPORT OBSERVATIONS IN OUR AREA  *****

CITY           SKY/WX    TMP DP  RH WIND       PRES   REMARKS
WALHALLA       FAIR     N/A N/A N/A N10G20    30.11R
GRAFTON AIRPOR CLOUDY    59  48  67 N9        30.10R
VALLEY CITY AR CLOUDY    59  52  77 NE10      30.04F
CANDO          CLOUDY    54  45  71 N10       30.12S
CAVALIER APRT  CLOUDY    57  48  72 N9        30.09R
GWINNER        CLOUDY    55  54  94 NE8       30.01R
SHEYENNE NWR     N/A     59  51  75 NE12      29.95
ROLLA          CLOUDY    52  43  71 NE9       30.11F
 ***** THE ABOVE OBSERVATIONS ARE NON NWS ARE NOT QUALITY
       CONTROLLED AND MAY MIS-REPORT RAIN FOR SNOW...
$$

  *****  WEATHER ACROSS NORTHERN MINNESOTA  *****

CITY           SKY/WX    TMP DP  RH WIND       PRES   REMARKS
FLAG ISLAND    CLOUDY    55  52  88 N8        30.05R
WARROAD        CLOUDY    57  54  88 CALM      30.07R
ROSEAU           N/A     57  54  88 N3        30.07R
HALLOCK          N/A     61  48  63 N12       30.08R
THF RVR FALLS  CLOUDY    58  51  78 N9        30.05F
BAUDETTE       CLOUDY    56  53  90 NW3       30.05R
WASKISH        CLOUDY    55  54  94 N6        30.06R
CROOKSTON      CLOUDY    61  52  72 NE6       30.06R
STEPHEN NDAWN    N/A     61  50  67 N12         N/A
GREENBUSH NDAW   N/A     59  50  72 N6          N/A
$$
  *****  WEATHER ACROSS CENTRAL AND WEST MINNESOTA  *****

CITY           SKY/WX    TMP DP  RH WIND       PRES   REMARKS
FOSSTON        CLOUDY    54  52  94 N7        30.06S
BEMIDJI        CLOUDY    55  52  89 N8        30.02F
PARK RAPIDS    CLOUDY    58  54  86 VRB5      30.03R
ELBOW LAKE     RAIN      56  56  98 NE3       30.01F
WADENA         CLOUDY    57  57 100 N5        30.01R
DETROIT LAKES  CLOUDY    55  52  88 N5        30.03R
MOORHEAD       CLOUDY    59  50  72 N10       30.03R
FERGUS FALLS   LGT RAIN  55  55 100 NE5       30.02R
MORRIS MN      NOT AVBL
STAPLES        LGT RAIN  57  57 100 N9        30.00R
$$
  *****  WEATHER ELSEWHERE ACROSS MINNESOTA  *****

CITY           SKY/WX    TMP DP  RH WIND       PRES   REMARKS
DULUTH         PTSUNNY   74  70  87 NW5       29.97R
INTRNTL FALLS  CLOUDY    57  54  89 NW5       30.02F
ELY            MOCLDY    66  63  88 NW6       30.02R
CLOQUET        FAIR      73  66  78 NW6       29.98R
WHEATON        FAIR      55  52  88 N7        29.98F
BRAINERD       PTSUNNY   64  62  93 N9        29.97R
HIBBING        FAIR      62  58  86 N6        30.00F
ALEXANDRIA     RAIN      58  57  97 N8        30.01R FOG
SAINT CLOUD    FAIR      70  66  87 N3        29.95S
MINNEAPOLIS    CLOUDY    86  71  60 SE6       29.91F HX  91
$$

  *****  WEATHER ACROSS SOUTH DAKOTA  *****

CITY           SKY/WX    TMP DP  RH WIND       PRES   REMARKS
SIOUX FALLS    TSTM      70  64  81 NE16      29.89F
BROOKINGS      TSTM      64  63  94 NE6       29.92R FOG
WATERTOWN      CLOUDY    53  53 100 NE12      29.94R
HURON          TSTM      56  56 100 NE10      29.91F
SISSETON         N/A     56  55  97 NE10      29.97S
ABERDEEN       TSTM      53  52  96 NE16      29.97R
MITCHELL       CLOUDY    59  58  96 NE9       29.90F
PIERRE         RAIN      50  50 100 N15       29.93F
MOBRIDGE       LGT RAIN  54  50  86 NE8       29.99S
RAPID CITY     LGT RAIN  46  45  93 N16       30.01F FOG
$$

  *****  SOME WEATHER IN NEARBY STATES *****

CITY           SKY/WX    TMP DP  RH WIND       PRES   REMARKS
GLASGOW MT     FAIR      51  35  54 SE7       30.11F
GREAT FALLS MT CLOUDY    51  28  41 SW6       30.06S
CHEYENNE WY    LGT RAIN  43  40  89 N10       29.99R FOG
SCOTTSBLUFF NE CLOUDY    48  43  82 N9        29.99R
OMAHA NE       PTSUNNY   90  62  39 SE22G29   29.88R HX  90
DES MOINES IA  FAIR      88  63  43 S12       29.93S
DAVENPORT IA   FAIR      88  65  46 SE6       30.01F HX  90
CHICAGO IL     FAIR      89  64  43 E12       30.03S HX  90
EAU CLAIRE WI  FAIR      86  65  49 S9        29.95F
LA CROSSE WI   FAIR      92  63  38 S12       29.96S HX  93
$$

  *****  SOME NATIONAL WEATHER *****

CITY           SKY/WX    TMP DP  RH WIND       PRES   REMARKS
LA GUARDIA NY  FAIR      83  53  35 N7        30.00R
RALEIGH NC     FAIR      80  59  48 NE8       30.05S
ATLANTA GA     FAIR      84  62  47 SE6       30.02R
NEW ORLEANS LA FAIR      87  66  49 E12       29.90S
OKLAHOMA CITY  FAIR      87  61  41 S15G23    29.89F
ALBUQUERQUE NM PTSUNNY   73  44  35 W13G23    29.78S
SALT LAKE CITY CLOUDY    54  35  48 NW12      29.92S
LOS ANGELES CA FAIR      70  59  68 W16       29.83F
BOISE ID       FAIR      60  35  39 NW14G23   30.01F
SEATTLE WA     PTSUNNY   67  51  56 W8        30.09S
$$

*** WEATHER ACROSS MANITOBA...SASKATCHEWAN AND ONTARIO ***
                ***ONTARIO***

CITY           SKY/WX    TMP DP  RH WIND       PRES   REMARKS
GERALDTON      MOCLDY    73  66  78 W7        29.94R
THUNDER BAY    PTCLDY    77  64  65 W9        29.94R
SIOUX LOOKOUT  CLOUDY    57  55  94 NW8       30.02R
TORONTO        CLEAR     86  64  48 SE5       30.07S
BIG TROUT LK   LGT RAIN  48  48 100 N8        30.08R FOG
PICKLE LAKE    DRIZZLE   55  55 100 NW3       30.00R FOG
DRYDEN         CLOUDY    55  54  94 W5        30.03R
KENORA         CLOUDY    54  52  94 N9        30.04S
$$
                *** MANITOBA***

CITY           SKY/WX    TMP DP  RH WIND       PRES   REMARKS
BRANDON        CLOUDY    55  43  62 NE8       30.12R
DAUPHIN        CLOUDY    54  46  76 NE5       30.13R
ISLAND LAKE    NOT AVBL
PILOT MOUND      N/A     50  45  81 N9          N/A
THE PAS        PTSUNNY   52  41  66 NE5       30.13F
THOMPSON       CLOUDY    43  37  81 N7        30.20R
WINNIPEG       PTSUNNY   57  46  67 N9        30.09R
LYNN LAKE      CLOUDY    43  37  81 E5        30.19S
CHURCHILL      CLOUDY    41  34  75 N7        30.24S
GILLAM         DRIZZLE   41  39  93 N12       30.20R
$$
                ***SASKATCHEWAN***

CITY           SKY/WX    TMP DP  RH WIND       PRES   REMARKS
ESTEVAN        CLOUDY    50  36  57 N9        30.13F
KINDERSLEY     PTSUNNY   50  37  62 VRB6      30.10R
LLOYDMINSTER   CLOUDY    48  39  71 S10       30.09F
PRINCE ALBERT  CLOUDY    52  37  58 SW5       30.14F
REGINA         CLOUDY    50  34  53 N5        30.14S
YORKTON        CLOUDY    50  39  66 CALM      30.15S
N. BATTLEFORD  CLOUDY    50  34  53 W3        30.14R
LA RONGE       CLOUDY    46  43  87 CALM      30.14S
SASKATOON      CLOUDY    52  39  62 S7        30.14S
SWIFT CURRENT    N/A     50  34  53 SE8       30.09F
$$
NOTE: THESE ARE AUTOMATED STATIONS WITH LIMITED QUALITY CONTROL
      "FAIR" INDICATES FEW OR NO CLOUDS BELOW 12,000 FEET WITH NO
      SIGNIFICANT WEATHER AND/OR OBSTRUCTIONS TO VISIBILITY.
      SKY/WX - SKY CONDITION AND SIGNIFICANT WEATHER.
      TMP - AIR TEMPERATURE.    DP   - DEWPOINT TEMPERATURE.
      RH  - RELATIVE HUMIDITY.  PRES - PRESSURE.
      HX  - HEAT INDEX.         WCI  - WIND CHILL INDEX.
$



USA.gov is the U.S. government's official web portal to all federal, state and local government web resources and services.